Port-of-Spain, Trinidad And Tobago

5:54 AM AST on December 08, 2016 (GMT -0400)
Piarco International

Weather History for TTPP - May, 2013

Change the Weather History Date:

Sunday, May 5, 2013

  Actual Average Record
Temperature  
Mean Temperature 84 °F -  
Max Temperature 91 °F 87 °F 93 °F (2005)
Min Temperature 76 °F 74 °F 73 °F (1997)
Cooling Degree Days 18    
Growing Degree Days 34 (Base 50)    
Moisture  
Dew Point 75 °F    
Average Humidity 75    
Maximum Humidity 94    
Minimum Humidity 48    
Precipitation  
Precipitation 0.00 in 0.18 in - ()
Sea Level Pressure  
Sea Level Pressure 29.88 in    
Wind  
Wind Speed 5 mph ()    
Max Wind Speed 16 mph    
Max Gust Speed -    
Visibility 6.5 miles    
Events      
Averages and records for this station are not official NWS values.
T = Trace of Precipitation, MM = Missing Value Source: Averaged Metar Reports

Daily Weather History Graph

Daily Weather History Graph

Search for Another Location

Airport or City:

Trip Planner

Search our weather history database for the weather conditions in past years. The results will help you decide how hot, cold, wet, or windy it might be!

Date:

Astronomy

May. 05, 2013 Rise Set
Actual Time 5:45 AM AST 6:18 PM AST
Civil Twilight 5:23 AM AST 6:40 PM AST
Nautical Twilight 4:58 AM AST 7:06 PM AST
Astronomical Twilight 4:32 AM AST 7:32 PM AST
Moon 2:28 AM AST (5/5) 2:52 PM AST (5/5)
Length of Visible Light 13h 16m
Length of Day
12h 32m
Waning Crescent, 18% of the Moon is Illuminated
May 5
Waning Crescent
May 9
New
May 18
First Quarter
May 25
Full
May 31
Last Quarter

Hourly Weather History & Observations

Time (AST) Temp. Heat Index Dew Point Humidity Pressure Visibility Wind Dir Wind Speed Gust Speed Precip Events Conditions
12:00 AM 78.8 °F - 75.2 °F 89% 29.89 in 6.2 mi Calm Calm - N/A   Mostly Cloudy
1:00 AM 78.8 °F - 75.2 °F 89% 29.86 in 6.2 mi Calm Calm - N/A   Mostly Cloudy
2:00 AM 78 °F - 75 °F 89% 29.86 in 10 mi ESE 3.5 mph - -   Haze
2:00 AM 78.8 °F - 75.2 °F 89% 29.83 in 6.2 mi ESE 3.5 mph - N/A   Mostly Cloudy
3:00 AM 78.8 °F - 75.2 °F 89% 29.83 in 6.2 mi ESE 9.2 mph - N/A   Mostly Cloudy
4:00 AM 78.8 °F - 75.2 °F 89% 29.83 in 6.2 mi East 5.8 mph - N/A   Mostly Cloudy
5:00 AM 77 °F - 75 °F 93% 29.86 in 7 mi Calm Calm - -   Haze
5:00 AM 77.0 °F - 75.2 °F 94% 29.86 in 6.2 mi Calm Calm - N/A   Mostly Cloudy
6:00 AM 77.0 °F - 75.2 °F 94% 29.86 in 6.2 mi Calm Calm - N/A   Mostly Cloudy
7:00 AM 80.6 °F 86.2 °F 75.2 °F 84% 29.89 in 4.3 mi Calm Calm - N/A   Mostly Cloudy
8:00 AM 84 °F - 76 °F 70% 29.92 in 4 mi ESE 10.4 mph - -   Widespread Dust
8:00 AM 84.2 °F 92.3 °F 75.2 °F 74% 29.92 in 4.3 mi ESE 10.4 mph - N/A   Mostly Cloudy
9:00 AM 86.0 °F 93.4 °F 73.4 °F 66% 29.95 in 5.6 mi ESE 11.5 mph - N/A   Mostly Cloudy
10:00 AM 87.8 °F 97.6 °F 75.2 °F 66% 29.95 in 5.6 mi SE 11.5 mph - N/A   Mostly Cloudy
11:00 AM 89 °F - 74 °F 53% 29.95 in 6 mi SE 16.1 mph - -   Widespread Dust
11:00 AM 89.6 °F 98.2 °F 73.4 °F 59% 29.95 in 5.6 mi SE 16.1 mph - N/A   Mostly Cloudy
12:00 PM 89.6 °F 98.2 °F 73.4 °F 59% 29.92 in 6.2 mi SE 13.8 mph - N/A   Mostly Cloudy
1:00 PM 89.6 °F 98.2 °F 73.4 °F 59% 29.89 in 6.2 mi SE 11.5 mph - N/A   Mostly Cloudy
2:00 PM 91 °F - 74 °F 48% 29.88 in 9 mi ESE 11.5 mph - -   Widespread Dust
2:00 PM 91.4 °F 100.1 °F 73.4 °F 55% 29.86 in 6.2 mi ESE 11.5 mph - N/A   Mostly Cloudy
3:00 PM 91.4 °F 98.4 °F 71.6 °F 52% 29.83 in 6.2 mi SE 12.7 mph - N/A   Mostly Cloudy
4:00 PM 89.6 °F 96.2 °F 71.6 °F 55% 29.83 in 6.2 mi SE 12.7 mph - N/A   Mostly Cloudy
5:00 PM 88 °F - 72 °F 50% 29.85 in 10 mi SE 9.2 mph - -   Widespread Dust
5:00 PM 87.8 °F 93.8 °F 71.6 °F 58% 29.83 in 6.2 mi SE 9.2 mph - N/A   Scattered Clouds
6:00 PM 86.0 °F 93.4 °F 73.4 °F 66% 29.86 in 6.2 mi ESE 6.9 mph - N/A   Mostly Cloudy
7:00 PM 82.4 °F 89.5 °F 75.2 °F 79% 29.86 in 6.2 mi ESE 4.6 mph - N/A   Mostly Cloudy
8:00 PM 81 °F - 77 °F 83% 29.90 in 10 mi ESE 8.1 mph - -   Widespread Dust
8:00 PM 80.6 °F 87.1 °F 77.0 °F 89% 29.89 in 6.2 mi ESE 8.1 mph - N/A   Mostly Cloudy
9:00 PM 82.4 °F 89.5 °F 75.2 °F 79% 29.86 in 6.2 mi ESE 4.6 mph - N/A   Mostly Cloudy
10:00 PM 80.6 °F 87.1 °F 77.0 °F 89% 29.92 in 6.2 mi ESE 5.8 mph - N/A   Mostly Cloudy
11:00 PM 79 °F - 76 °F 88% 29.94 in 10 mi ESE 6.9 mph - -   Widespread Dust
11:00 PM 78.8 °F - 77.0 °F 94% 29.92 in 6.2 mi ESE 6.9 mph - N/A   Mostly Cloudy